Retour au catalogue

ATLAS 5 CENTAUR R/B

ActifHEO
NORAD 36869·ROCKET BODY·🇺🇸 United States

Lancé Aug 14, 2010 depuis Cape Canaveral Space Force Station

Loading…

Prochains Passages (prochaines 24 heures)

TLE

FraisSource: Space-Track

Époque: Sep 14, 2026, 11:00 UTC

1 36869U 10039B   26257.45890831  .00010451  00000-0  77635-3 0  9997
2 36869  20.1230 240.7812 4433451 105.4301 306.5122  6.64692480294148

Suivez ATLAS 5 CENTAUR R/B en temps réel avec AllMySat

Download on the App Store